Voltar ao catálogo

OPTICUBE 04

AtivoCiênciaPO
NORAD 41851·PAYLOAD·🇺🇸 United States

Lançado Nov 11, 2016 de Vandenberg Space Force Base

Loading…

Próximas Passagens (próximas 24 horas)

TLE

AtualizadoSource: Space-Track

Época: Sep 14, 2026, 13:10 UTC

1 41851U 16067D   26257.54922661  .00001757  00000-0  11235-3 0  9991
2 41851  98.0585 114.4718 0015594 169.9859 190.1683 15.09971304538657

Acompanhe OPTICUBE 04 em tempo real com AllMySat

Download on the App Store